| time (UTC) | temp F | wind direction | speed MPH | gust MPH | rain 1hr in | rain 24hr in | rain mn in | humidity % | barometer mb |
| 20260502210633 | 53 | 32 | 2.0 | 5.0 | 0.00 | 0.00 | 0.68 | 84 | 1006.6 |
| 20260502205953 | 53 | 93 | 2.0 | 5.0 | 0.00 | 0.00 | 0.68 | 82 | 1006.6 |
| 20260502205313 | 53 | 61 | 3.0 | 6.0 | 0.00 | 0.00 | 0.68 | 85 | 1006.6 |
| 20260502204634 | 52 | 61 | 2.0 | 5.0 | 0.00 | 0.00 | 0.68 | 86 | 1006.6 |
| 20260502203953 | 53 | 58 | 3.0 | 6.0 | 0.00 | 0.00 | 0.68 | 82 | 1006.6 |
| 20260502203313 | 53 | 93 | 2.0 | 5.0 | 0.00 | 0.00 | 0.68 | 88 | 1006.6 |
| 20260502202633 | 53 | 38 | 3.0 | 6.0 | 0.00 | 0.00 | 0.68 | 86 | 1006.6 |
| 20260502201953 | 53 | 43 | 3.0 | 6.0 | 0.00 | 0.00 | 0.68 | 89 | 1006.6 |
| 20260502201313 | 53 | 63 | 2.0 | 4.0 | 0.00 | 0.00 | 0.68 | 90 | 1006.6 |
| 20260502200633 | 53 | 79 | 2.0 | 6.0 | 0.00 | 0.00 | 0.68 | 89 | 1006.6 |
| 20260502195953 | 53 | 30 | 3.0 | 7.0 | 0.00 | 0.00 | 0.68 | 89 | 1006.6 |
| 20260502195313 | 53 | 43 | 3.0 | 7.0 | 0.00 | 0.00 | 0.68 | 86 | 1006.9 |
| 20260502194848 | 53 | 67 | 3.0 | 8.0 | 0.00 | 0.00 | 0.68 | 88 | 1006.9 |
| 20260502193953 | 53 | 43 | 3.0 | 6.0 | 0.00 | 0.00 | 0.68 | 89 | 1006.9 |
| 20260502193313 | 53 | 32 | 3.0 | 6.0 | 0.00 | 0.00 | 0.67 | 89 | 1006.9 |
| 20260502192633 | 53 | 78 | 2.0 | 6.0 | 0.00 | 0.00 | 0.67 | 92 | 1007.3 |
| 20260502191954 | 52 | 65 | 2.0 | 7.0 | 0.00 | 0.00 | 0.67 | 92 | 1007.3 |
| 20260502191313 | 53 | 78 | 2.0 | 7.0 | 0.00 | 0.00 | 0.67 | 90 | 1007.3 |
| 20260502190633 | 52 | 14 | 3.0 | 6.0 | 0.00 | 0.00 | 0.67 | 92 | 1007.3 |
| 20260502185953 | 52 | 29 | 3.0 | 9.0 | 0.00 | 0.00 | 0.67 | 92 | 1007.3 |
| 20260502185313 | 52 | 46 | 5.0 | 9.0 | 0.00 | 0.00 | 0.67 | 91 | 1007.3 |
| 20260502184634 | 52 | 20 | 2.0 | 8.0 | 0.00 | 0.00 | 0.67 | 94 | 1007.3 |
| 20260502183953 | 52 | 47 | 4.0 | 8.0 | 0.00 | 0.00 | 0.67 | 94 | 1007.3 |
| 20260502183524 | 52 | 39 | 5.0 | 10.0 | 0.00 | 0.00 | 0.66 | 95 | 1007.3 |
| 20260502182633 | 51 | 41 | 4.0 | 9.0 | 0.00 | 0.00 | 0.66 | 95 | 1007.6 |
| 20260502181953 | 52 | 26 | 4.0 | 10.0 | 0.00 | 0.00 | 0.66 | 92 | 1007.6 |
| 20260502181313 | 52 | 6 | 5.0 | 10.0 | 0.00 | 0.00 | 0.65 | 93 | 1007.6 |
| 20260502180633 | 51 | 37 | 5.0 | 8.0 | 0.00 | 0.00 | 0.65 | 93 | 1007.6 |
| 20260502163953 | 51 | 37 | 5.0 | 8.0 | 0.00 | 0.00 | 0.60 | 95 | 1008.3 |
| 20260502163526 | 51 | 41 | 3.0 | 7.0 | 0.00 | 0.00 | 0.59 | 97 | 1008.6 |
| 20260502162633 | 51 | 33 | 4.0 | 8.0 | 0.00 | 0.00 | 0.58 | 96 | 1008.6 |
| 20260502161953 | 51 | 50 | 2.0 | 7.0 | 0.00 | 0.00 | 0.55 | 98 | 1008.6 |
| 20260502161313 | 51 | 70 | 3.0 | 8.0 | 0.00 | 0.00 | 0.53 | 96 | 1008.6 |
| 20260502160843 | 51 | 43 | 4.0 | 9.0 | 0.00 | 0.00 | 0.51 | 96 | 1008.6 |
| 20260502151953 | 52 | 42 | 5.0 | 10.0 | 0.00 | 0.00 | 0.46 | 94 | 1008.3 |
| 20260502151313 | 52 | 32 | 4.0 | 9.0 | 0.00 | 0.00 | 0.45 | 95 | 1008.6 |
| 20260502150844 | 52 | 17 | 4.0 | 12.0 | 0.00 | 0.00 | 0.44 | 97 | 1008.6 |
| 20260502130634 | 52 | 21 | 4.0 | 8.0 | 0.00 | 0.00 | 0.29 | 96 | 1007.6 |
| 20260502123313 | 52 | 15 | 4.0 | 8.0 | 0.00 | 0.00 | 0.25 | 95 | 1006.9 |
| 20260502122633 | 52 | 26 | 3.0 | 8.0 | 0.00 | 0.00 | 0.24 | 95 | 1006.9 |
| 20260502121953 | 52 | 33 | 3.0 | 8.0 | 0.00 | 0.00 | 0.23 | 95 | 1006.9 |
| 20260502121313 | 52 | 7 | 4.0 | 7.0 | 0.00 | 0.00 | 0.21 | 96 | 1006.9 |
| 20260502120633 | 52 | 16 | 5.0 | 9.0 | 0.00 | 0.00 | 0.20 | 93 | 1006.9 |
| 20260502115313 | 52 | 12 | 4.0 | 11.0 | 0.00 | 0.00 | 0.18 | 94 | 1006.9 |
| 20260502114633 | 52 | 5 | 4.0 | 11.0 | 0.00 | 0.00 | 0.17 | 92 | 1006.9 |
| 20260502113954 | 52 | 4 | 7.0 | 12.0 | 0.00 | 0.00 | 0.16 | 90 | 1006.9 |
| 20260502113314 | 52 | 1 | 7.0 | 12.0 | 0.00 | 0.00 | 0.15 | 90 | 1007.3 |
| 20260502112633 | 53 | 357 | 6.0 | 10.0 | 0.00 | 0.00 | 0.13 | 90 | 1007.3 |
| 20260502111953 | 53 | 356 | 5.0 | 12.0 | 0.00 | 0.00 | 0.12 | 90 | 1007.3 |
| 20260502111313 | 53 | 358 | 7.0 | 12.0 | 0.00 | 0.00 | 0.10 | 89 | 1007.3 |
| 20260502110633 | 53 | 354 | 6.0 | 12.0 | 0.00 | 0.00 | 0.09 | 88 | 1007.3 |
| 20260502105953 | 53 | 358 | 7.0 | 11.0 | 0.00 | 0.00 | 0.07 | 88 | 1007.3 |
| 20260502105313 | 53 | 358 | 6.0 | 12.0 | 0.00 | 0.00 | 0.06 | 88 | 1007.3 |
| 20260502104633 | 53 | 357 | 6.0 | 12.0 | 0.00 | 0.00 | 0.04 | 88 | 1007.3 |
| 20260502103953 | 53 | 358 | 6.0 | 12.0 | 0.00 | 0.00 | 0.02 | 90 | 1007.3 |
| 20260502103313 | 53 | 358 | 7.0 | 13.0 | 0.00 | 0.00 | 0.02 | 89 | 1007.3 |
| 20260502102633 | 53 | 354 | 7.0 | 13.0 | 0.00 | 0.00 | 0.01 | 91 | 1007.3 |
| 20260502101953 | 53 | 356 | 6.0 | 9.0 | 0.00 | 0.00 | 0.00 | 90 | 1007.3 |
| 20260502101313 | 54 | 349 | 4.0 | 7.0 | 0.00 | 0.00 | 0.00 | 88 | 1007.3 |
| 20260502100847 | 53 | 342 | 3.0 | 9.0 | 0.00 | 0.00 | 0.00 | 88 | 1007.3 |
| 20260502091313 | 53 | 351 | 2.0 | 6.0 | 0.00 | 0.00 | 0.00 | 92 | 1007.3 |
| 20260502090633 | 53 | 0 | 4.0 | 9.0 | 0.00 | 0.00 | 0.00 | 91 | 1006.9 |
| 20260502090203 | 53 | 358 | 5.0 | 8.0 | 0.00 | 0.00 | 0.00 | 91 | 1006.9 |
| 20260502071313 | 52 | 24 | 2.0 | 3.0 | 0.00 | 0.00 | 0.00 | 95 | 1006.2 |
| 20260502070634 | 52 | 53 | 1.0 | 2.0 | 0.00 | 0.00 | 0.00 | 96 | 1006.2 |
| 20260502065953 | 52 | 13 | 1.0 | 3.0 | 0.00 | 0.00 | 0.00 | 96 | 1006.9 |
| 20260502065313 | 52 | 34 | 2.0 | 3.0 | 0.00 | 0.00 | 0.00 | 95 | 1006.6 |
| 20260502064634 | 52 | 21 | 2.0 | 3.0 | 0.00 | 0.00 | 0.00 | 94 | 1006.9 |
| 20260502063953 | 52 | 57 | 1.0 | 2.0 | 0.00 | 0.00 | 0.00 | 95 | 1006.6 |
| 20260502063313 | 52 | 32 | 2.0 | 2.0 | 0.00 | 0.00 | 0.00 | 95 | 1006.9 |
| 20260502062847 | 52 | 64 | 1.0 | 3.0 | 0.00 | 0.00 | 0.00 | 95 | 1006.6 |
| 20260502061953 | 53 | 0 | 1.0 | 2.0 | 0.00 | 0.00 | 0.00 | 95 | 1006.9 |
| 20260502061314 | 53 | 348 | 1.0 | 2.0 | 0.00 | 0.00 | 0.00 | 96 | 1006.9 |
| 20260502060633 | 53 | 66 | 0.0 | 1.0 | 0.00 | 0.00 | 0.00 | 97 | 1006.9 |
| 20260502055953 | 53 | 188 | 0.0 | 1.0 | 0.00 | 0.00 | 0.00 | 97 | 1006.9 |
| 20260502055526 | 53 | 173 | 0.0 | 1.0 | 0.00 | 0.00 | 0.00 | 96 | 1007.3 |
| 20260502054846 | 52 | 27 | 0.0 | 1.0 | 0.00 | 0.00 | 0.00 | 96 | 1007.3 |
| 20260502053953 | 52 | 276 | 0.0 | 1.0 | 0.00 | 0.00 | 0.00 | 96 | 1007.3 |
| 20260502053523 | 52 | 50 | 0.0 | 1.0 | 0.00 | 0.00 | 0.00 | 96 | 1007.3 |
| 20260502052633 | 52 | 79 | 0.0 | 2.0 | 0.00 | 0.00 | 0.00 | 97 | 1007.3 |
| 20260502051953 | 52 | 32 | 0.0 | 2.0 | 0.00 | 0.00 | 0.00 | 97 | 1007.3 |
| 20260502051313 | 52 | 348 | 1.0 | 2.0 | 0.00 | 0.00 | 0.00 | 96 | 1007.3 |
| 20260502050633 | 52 | 52 | 1.0 | 2.0 | 0.00 | 0.00 | 0.00 | 96 | 1007.6 |
| 20260502045953 | 53 | 340 | 1.0 | 2.0 | 0.00 | 0.00 | 0.00 | 96 | 1007.6 |
| 20260502045313 | 52 | 23 | 0.0 | 2.0 | 0.00 | 0.00 | 0.00 | 96 | 1007.6 |
| 20260502044633 | 52 | 14 | 1.0 | 2.0 | 0.00 | 0.00 | 0.00 | 96 | 1007.6 |
| 20260502043953 | 52 | 26 | 0.0 | 1.0 | 0.00 | 0.00 | 0.00 | 97 | 1007.6 |
| 20260502043313 | 52 | 132 | 0.0 | 1.0 | 0.00 | 0.00 | 0.00 | 96 | 1007.6 |
| 20260502042634 | 52 | 174 | 0.0 | 2.0 | 0.00 | 0.00 | 0.00 | 96 | 1007.6 |
| 20260502041953 | 52 | 352 | 0.0 | 2.0 | 0.00 | 0.00 | 0.00 | 96 | 1007.9 |
| 20260502041313 | 52 | 355 | 1.0 | 2.0 | 0.00 | 0.00 | 0.00 | 96 | 1007.6 |
| 20260502040846 | 52 | 177 | 0.0 | 1.0 | 0.00 | 0.00 | 0.00 | 96 | 1007.6 |
| 20260502035953 | 52 | 55 | 1.0 | 2.0 | 0.00 | 0.00 | 0.07 | 96 | 1007.6 |
| 20260502035313 | 52 | 31 | 1.0 | 2.0 | 0.00 | 0.00 | 0.07 | 96 | 1007.6 |
| 20260502034843 | 52 | 103 | 1.0 | 2.0 | 0.00 | 0.00 | 0.07 | 96 | 1007.6 |
| 20260502033953 | 52 | 137 | 1.0 | 2.0 | 0.00 | 0.00 | 0.07 | 98 | 1007.6 |
| 20260502033313 | 52 | 182 | 1.0 | 2.0 | 0.00 | 0.00 | 0.07 | 98 | 1007.9 |
| 20260502032633 | 52 | 122 | 1.0 | 1.0 | 0.00 | 0.00 | 0.07 | 97 | 1007.9 |
| 20260502032205 | 52 | 42 | 0.0 | 1.0 | 0.00 | 0.00 | 0.07 | 98 | 1007.9 |
| 20260502031313 | 52 | 134 | 0.0 | 1.0 | 0.00 | 0.00 | 0.07 | 97 | 1008.3 |
| 20260502030846 | 52 | 223 | 0.0 | 1.0 | 0.00 | 0.00 | 0.07 | 96 | 1008.3 |
| 20260502025953 | 52 | 110 | 0.0 | 1.0 | 0.00 | 0.00 | 0.07 | 95 | 1008.3 |
| 20260502025313 | 52 | 55 | 1.0 | 1.0 | 0.00 | 0.00 | 0.07 | 96 | 1008.3 |
| 20260502024634 | 52 | 246 | 0.0 | 1.0 | 0.00 | 0.00 | 0.07 | 94 | 1008.3 |
| 20260502024204 | 52 | 17 | 1.0 | 2.0 | 0.00 | 0.00 | 0.07 | 94 | 1008.3 |
| 20260502023313 | 52 | 16 | 1.0 | 2.0 | 0.00 | 0.00 | 0.07 | 95 | 1008.3 |
| 20260502022633 | 52 | 354 | 1.0 | 1.0 | 0.00 | 0.00 | 0.07 | 94 | 1008.3 |
| 20260502021953 | 52 | 60 | 0.0 | 2.0 | 0.00 | 0.00 | 0.07 | 93 | 1008.3 |
| 20260502021313 | 52 | 350 | 1.0 | 2.0 | 0.00 | 0.00 | 0.07 | 93 | 1008.3 |
| 20260502020847 | 52 | 340 | 1.0 | 2.0 | 0.00 | 0.00 | 0.07 | 94 | 1008.6 |
| 20260502015953 | 52 | 9 | 1.0 | 2.0 | 0.00 | 0.00 | 0.07 | 92 | 1008.3 |
| 20260502015313 | 52 | 97 | 0.0 | 1.0 | 0.00 | 0.00 | 0.07 | 89 | 1008.3 |
| 20260502014633 | 52 | 27 | 0.0 | 2.0 | 0.00 | 0.00 | 0.07 | 88 | 1008.3 |
| 20260502013953 | 52 | 204 | 1.0 | 3.0 | 0.00 | 0.00 | 0.07 | 89 | 1008.3 |
| 20260502013313 | 52 | 158 | 2.0 | 3.0 | 0.00 | 0.00 | 0.07 | 89 | 1007.9 |
| 20260502012633 | 52 | 167 | 2.0 | 3.0 | 0.00 | 0.00 | 0.07 | 92 | 1008.3 |
| 20260502011953 | 52 | 175 | 1.0 | 2.0 | 0.00 | 0.00 | 0.07 | 92 | 1008.3 |
| 20260502011313 | 52 | 169 | 1.0 | 2.0 | 0.00 | 0.00 | 0.07 | 92 | 1007.9 |
| 20260502010633 | 52 | 161 | 1.0 | 2.0 | 0.00 | 0.00 | 0.07 | 92 | 1007.9 |
| 20260502005953 | 53 | 121 | 1.0 | 2.0 | 0.00 | 0.00 | 0.07 | 93 | 1007.9 |
| 20260502005313 | 53 | 192 | 1.0 | 2.0 | 0.00 | 0.00 | 0.07 | 92 | 1007.9 |
| 20260502004634 | 53 | 229 | 1.0 | 2.0 | 0.00 | 0.00 | 0.07 | 90 | 1007.9 |
| 20260502003953 | 54 | 224 | 1.0 | 2.0 | 0.00 | 0.00 | 0.07 | 89 | 1007.9 |
| 20260502003314 | 53 | 87 | 1.0 | 2.0 | 0.00 | 0.00 | 0.07 | 85 | 1007.6 |
| 20260502002634 | 54 | 51 | 1.0 | 2.0 | 0.00 | 0.00 | 0.07 | 85 | 1007.6 |
| 20260502002207 | 54 | 93 | 1.0 | 2.0 | 0.00 | 0.00 | 0.07 | 84 | 1007.6 |
| 20260502001314 | 54 | 161 | 1.0 | 2.0 | 0.00 | 0.00 | 0.07 | 85 | 1007.3 |
| 20260502000633 | 54 | 137 | 1.0 | 4.0 | 0.00 | 0.00 | 0.07 | 83 | 1007.6 |
| 20260502000204 | 54 | 136 | 1.0 | 3.0 | 0.00 | 0.00 | 0.07 | 82 | 1007.6 |
| 20260501235313 | 54 | 148 | 1.0 | 3.0 | 0.00 | 0.00 | 0.07 | 84 | 1007.6 |
| 20260501234633 | 54 | 173 | 1.0 | 3.0 | 0.00 | 0.00 | 0.07 | 82 | 1007.9 |
| 20260501233953 | 54 | 162 | 1.0 | 2.0 | 0.00 | 0.00 | 0.07 | 81 | 1007.9 |
| 20260501233317 | 55 | 112 | 1.0 | 3.0 | 0.00 | 0.00 | 0.07 | 79 | 1007.6 |
| 20260501232847 | 55 | 157 | 2.0 | 3.0 | 0.00 | 0.00 | 0.07 | 79 | 1007.9 |
| 20260501231953 | 55 | 160 | 1.0 | 5.0 | 0.00 | 0.00 | 0.07 | 80 | 1007.9 |
| 20260501231523 | 55 | 154 | 3.0 | 5.0 | 0.00 | 0.00 | 0.07 | 79 | 1007.9 |
| 20260501230633 | 56 | 46 | 0.0 | 3.0 | 0.00 | 0.00 | 0.07 | 77 | 1007.9 |
| 20260501225953 | 55 | 156 | 1.0 | 3.0 | 0.00 | 0.00 | 0.07 | 78 | 1007.6 |
| 20260501225313 | 56 | 120 | 1.0 | 3.0 | 0.00 | 0.00 | 0.07 | 75 | 1007.6 |
| 20260501224632 | 55 | 151 | 1.0 | 4.0 | 0.00 | 0.00 | 0.07 | 77 | 1007.9 |
| 20260501223953 | 55 | 134 | 2.0 | 4.0 | 0.00 | 0.00 | 0.07 | 77 | 1007.9 |
| 20260501223312 | 55 | 163 | 3.0 | 5.0 | 0.00 | 0.00 | 0.07 | 78 | 1007.9 |
| 20260501222843 | 55 | 151 | 2.0 | 4.0 | 0.00 | 0.00 | 0.07 | 75 | 1007.9 |
| 20260501222203 | 55 | 154 | 1.0 | 3.0 | 0.00 | 0.00 | 0.07 | 76 | 1008.3 |
| 20260501221312 | 55 | 158 | 1.0 | 2.0 | 0.00 | 0.00 | 0.07 | 78 | 1008.3 |
| 20260501220632 | 54 | 168 | 1.0 | 3.0 | 0.00 | 0.00 | 0.07 | 78 | 1008.3 |
| 20260501215952 | 54 | 148 | 2.0 | 3.0 | 0.00 | 0.00 | 0.07 | 78 | 1008.3 |
| 20260501215313 | 55 | 175 | 1.0 | 2.0 | 0.00 | 0.00 | 0.07 | 75 | 1008.3 |
| 20260501214632 | 54 | 166 | 1.0 | 3.0 | 0.00 | 0.00 | 0.07 | 78 | 1008.6 |
| 20260501214202 | 54 | 156 | 2.0 | 3.0 | 0.00 | 0.00 | 0.07 | 77 | 1008.6 |
| 20260501213523 | 54 | 167 | 1.0 | 2.0 | 0.00 | 0.00 | 0.07 | 80 | 1008.6 |
| 20260501212632 | 54 | 132 | 1.0 | 2.0 | 0.00 | 0.00 | 0.07 | 77 | 1008.6 |
| 20260501212204 | 54 | 158 | 1.0 | 2.0 | 0.00 | 0.00 | 0.07 | 77 | 1008.6 |
| 20260501211312 | 55 | 217 | 1.0 | 2.0 | 0.00 | 0.00 | 0.07 | 73 | 1008.6 |